CW1238 Weather Reports


time (UTC)temp
F
wind
direction
speed
knots
gust
knots
rain 1hr
in
rain 24hr
in
rain mn
in
humidity
%
barometer
mb
20260507134657 45 42 0.9 2.6 0.00 0.00 0.00 53 1050.1
20260507134154 44 14 0.9 0.9 0.00 0.00 0.00 55 1050.2
20260507133649 43 35 2.6 2.6 0.00 0.00 0.00 57 1050.1
20260507133146 43 356 2.6 2.6 0.00 0.00 0.00 58 1050.3
20260507132644 43 331 0.9 1.7 0.00 0.00 0.00 63 1050.6
20260507132140 43 349 1.7 2.6 0.00 0.00 0.00 60 1050.8
20260507131637 41 311 1.7 1.7 0.00 0.00 0.00 64 1051.0
20260507131134 41 311 1.7 1.7 0.00 0.00 0.00 64 1050.7
20260507130630 41 311 1.7 1.7 0.00 0.00 0.00 64 1050.8
20260507130129 42 288 0.0 0.0 0.00 0.00 0.00 60 1051.0
20260507125627 42 288 0.0 0.0 0.00 0.00 0.00 60 1051.0
20260507125125 42 288 0.0 0.0 0.00 0.00 0.00 60 1051.0
20260507124620 42 288 0.0 0.0 0.00 0.00 0.00 60 1050.8
20260507124118 36 177 0.0 0.0 0.00 0.00 0.00 67 1050.3
20260507123616 36 177 0.0 0.0 0.00 0.00 0.00 67 1050.3
20260507123113 36 177 0.0 0.0 0.00 0.00 0.00 67 1050.2
20260507122608 36 177 0.0 0.0 0.00 0.00 0.00 67 1050.1
20260507122104 36 177 0.0 0.0 0.00 0.00 0.00 67 1050.2
20260507121601 36 177 0.0 0.0 0.00 0.00 0.00 67 1050.1
20260507121056 36 177 0.0 0.0 0.00 0.00 0.00 67 1050.1
20260507120552 36 177 0.0 0.0 0.00 0.00 0.00 67 1050.0
20260507120049 36 177 0.0 0.0 0.00 0.00 0.00 67 1050.0
20260507115546 36 177 0.0 0.0 0.00 0.00 0.00 67 1049.8
20260507115042 36 177 0.0 0.0 0.00 0.00 0.00 67 1049.7
20260507114537 36 166 0.0 0.0 0.00 0.00 0.00 68 1049.8
20260507114035 36 103 0.9 1.7 0.00 0.00 0.00 68 1049.9
20260507113532 35 135 0.0 0.9 0.00 0.00 0.00 69 1049.8
20260507113029 35 135 0.0 0.9 0.00 0.00 0.00 69 1049.9
20260507112527 0 0.0 0.0 0.00 0.00 0.00 1050.2
20260507112024 0 0.0 0.0 0.00 0.00 0.00 1050.0
20260507111521 0 0.0 0.0 0.00 0.00 0.00 1050.0
20260507111017 0 0.0 0.0 0.00 0.00 0.00 1050.1
20260507110514 35 163 0.0 0.0 0.00 0.00 0.00 66 1050.0
20260507110010 35 163 0.0 0.0 0.00 0.00 0.00 66 1050.0
20260507105507 35 163 0.0 0.0 0.00 0.00 0.00 66 1050.2
20260507105003 35 163 0.0 0.0 0.00 0.00 0.00 66 1050.2
20260507104501 35 163 0.0 0.0 0.00 0.00 0.00 66 1050.1
20260507103956 35 163 0.0 0.0 0.00 0.00 0.00 66 1050.1
20260507103453 35 163 0.0 0.0 0.00 0.00 0.00 66 1050.3
20260507102949 35 163 0.0 0.0 0.00 0.00 0.00 66 1050.4
20260507102446 35 163 0.0 0.0 0.00 0.00 0.00 66 1050.5
20260507101943 35 163 0.0 0.0 0.00 0.00 0.00 66 1050.5
20260507101438 35 163 0.0 0.0 0.00 0.00 0.00 66 1050.5
20260507100934 35 163 0.0 0.0 0.00 0.00 0.00 66 1050.5
20260507100432 35 182 0.0 0.9 0.00 0.00 0.00 68 1050.6
20260507095930 32 169 0.0 0.0 0.00 0.00 0.00 76 1050.5
20260507095427 32 169 0.0 0.0 0.00 0.00 0.00 76 1050.8
20260507094924 32 169 0.0 0.0 0.00 0.00 0.00 76 1050.7
20260507094420 32 169 0.0 0.0 0.00 0.00 0.00 76 1050.7
20260507093917 32 169 0.0 0.0 0.00 0.00 0.00 76 1050.9
20260507093415 0 0.0 0.0 0.00 0.00 0.00 1051.1
20260507092914 0 0.0 0.0 0.00 0.00 0.00 1051.1
20260507092409 0 0.0 0.0 0.00 0.00 0.00 1051.2
20260507091906 0 0.0 0.0 0.00 0.00 0.00 1051.4
20260507091403 0 0.0 0.0 0.00 0.00 0.00 1051.5
20260507090858 0 0.0 0.0 0.00 0.00 0.00 1051.8
20260507090355 0 0.0 0.0 0.00 0.00 0.00 1051.7
20260507085852 0 0.0 0.0 0.00 0.00 0.00 1051.8
20260507085349 0 0.0 0.0 0.00 0.00 0.00 1052.0
20260507084846 0 0.0 0.0 0.00 0.00 0.00 1051.7
20260507084342 0 0.0 0.0 0.00 0.00 0.00 1051.9
20260507083840 0 0.0 0.0 0.00 0.00 0.00 1051.8
20260507083336 0 0.0 0.0 0.00 0.00 0.00 1051.8
20260507082832 0 0.0 0.0 0.00 0.00 0.00 1051.8
20260507082328 0 0.0 0.0 0.00 0.00 0.00 1052.0
20260507081825 0 0.0 0.0 0.00 0.00 0.00 1051.7
20260507081321 0 0.0 0.0 0.00 0.00 0.00 1052.2
20260507080818 0 0.0 0.0 0.00 0.00 0.00 1052.4
20260507080314 0 0.0 0.0 0.00 0.00 0.00 1052.0
20260507075810 0 0.0 0.0 0.00 0.00 0.00 1051.9
20260507075307 0 0.0 0.0 0.00 0.00 0.00 1052.0
20260507074803 0 0.0 0.0 0.00 0.00 0.00 1052.0
20260507074301 0 0.0 0.0 0.00 0.00 0.00 1052.2
20260507073757 0 0.0 0.0 0.00 0.00 0.00 1052.3
20260507073254 0 0.0 0.0 0.00 0.00 0.00 1052.2
20260507072751 0 0.0 0.0 0.00 0.00 0.00 1052.3
20260507072249 0 0.0 0.0 0.00 0.00 0.00 1052.3
20260507071746 0 0.0 0.0 0.00 0.00 0.00 1052.3
20260507071242 0 0.0 0.0 0.00 0.00 0.00 1052.2
20260507070739 0 0.0 0.0 0.00 0.00 0.00 1052.3
20260507070236 0 0.0 0.0 0.00 0.00 0.00 1052.3
20260507065733 0 0.0 0.0 0.00 0.00 0.00 1052.2
20260507065230 0 0.0 0.0 0.00 0.00 0.00 1052.4
20260507064727 0 0.0 0.0 0.00 0.00 0.00 1052.5
20260507064226 0 0.0 0.0 0.00 0.00 0.00 1052.3
20260507063723 32 191 0.0 0.0 0.00 0.00 0.00 77 1052.5
20260507063220 32 191 0.0 0.0 0.00 0.00 0.00 77 1052.5
20260507062716 32 191 0.0 0.0 0.00 0.00 0.00 77 1052.6
20260507062214 32 191 0.0 0.0 0.00 0.00 0.00 77 1052.5
20260507061712 32 191 0.0 0.0 0.00 0.00 0.00 77 1052.6
20260507061209 32 191 0.0 0.0 0.00 0.00 0.00 77 1052.3
20260507060708 32 191 0.0 0.0 0.00 0.00 0.00 77 1052.3
20260507060203 32 191 0.0 0.0 0.00 0.00 0.00 77 1052.5
20260507055700 32 191 0.0 0.0 0.00 0.00 0.00 77 1052.4
20260507055155 32 191 0.0 0.0 0.00 0.00 0.00 77 1052.5
20260507054652 32 191 0.0 0.0 0.00 0.00 0.00 77 1052.5
20260507054148 32 191 0.0 0.0 0.00 0.00 0.00 77 1052.5
20260507053647 0 0.0 0.0 0.00 0.00 0.00 1052.7
20260507053144 0 0.0 0.0 0.00 0.00 0.00 1052.5
20260507052643 0 0.0 0.0 0.00 0.00 0.00 1052.5
20260507052138 0 0.0 0.0 0.00 0.00 0.00 1052.8
20260507051636 0 0.0 0.0 0.00 0.00 0.00 1052.7
20260507051132 0 0.0 0.0 0.00 0.00 0.00 1052.6
20260507050629 0 0.0 0.0 0.00 0.00 0.00 1052.7
20260507050126 0 0.0 0.0 0.00 0.00 0.00 1052.6
20260507045623 0 0.0 0.0 0.00 0.00 0.00 1052.7
20260507045119 0 0.0 0.0 0.00 0.00 0.00 1052.5
20260507044616 0 0.0 0.0 0.00 0.00 0.00 1052.8
20260507044108 0 0.0 0.0 0.00 0.00 0.00 1052.7
20260507043603 0 0.0 0.0 0.00 0.00 0.00 1052.6
20260507043101 0 0.0 0.0 0.00 0.00 0.00 1052.7
20260507042556 0 0.0 0.0 0.00 0.00 0.00 1052.9
20260507042052 0 0.0 0.0 0.00 0.00 0.00 1052.9
20260507041549 0 0.0 0.0 0.00 0.00 0.00 1053.0
20260507041047 0 0.0 0.0 0.00 0.00 0.00 1053.0
20260507040543 37 187 0.0 0.0 0.00 0.00 0.00 62 1053.1
20260507040039 37 187 0.0 0.0 0.00 0.00 0.00 62 1053.2
20260507035535 37 187 0.0 0.0 0.00 0.00 0.00 62 1053.3
20260507035032 37 187 0.0 0.0 0.00 0.00 0.00 62 1053.4
20260507034528 37 187 0.0 0.0 0.00 0.00 0.00 62 1053.5
20260507034027 37 187 0.0 0.0 0.00 0.00 0.00 62 1053.5
20260507033524 37 187 0.0 0.0 0.00 0.00 0.00 62 1053.6
20260507033021 37 187 0.0 0.0 0.00 0.00 0.00 62 1053.5
20260507032518 37 187 0.0 0.0 0.00 0.00 0.00 62 1053.5
20260507032014 37 187 0.0 0.0 0.00 0.00 0.00 62 1053.5
20260507031511 37 187 0.0 0.0 0.00 0.00 0.00 62 1053.6
20260507031009 37 187 0.0 0.0 0.00 0.00 0.00 62 1053.4
20260507030505 37 179 0.0 0.0 0.00 0.00 0.00 62 1053.6
20260507030003 37 179 0.0 0.0 0.00 0.00 0.00 62 1053.4
20260507025459 37 179 0.0 0.0 0.00 0.00 0.00 62 1053.5
20260507024957 0 0.0 0.0 0.00 0.00 0.00 1053.6
20260507024454 0 0.0 0.0 0.00 0.00 0.00 1053.6
20260507023950 0 0.0 0.0 0.00 0.00 0.00 1053.5
20260507023447 0 0.0 0.0 0.00 0.00 0.00 1053.6
20260507022944 0 0.0 0.0 0.00 0.00 0.00 1053.5
20260507022441 0 0.0 0.0 0.00 0.00 0.00 1053.4
20260507021936 0 0.0 0.0 0.00 0.00 0.00 1053.5
20260507021431 44 197 0.0 0.0 0.00 0.00 0.00 49 1053.4
20260507020930 44 197 0.0 0.0 0.00 0.00 0.00 49 1053.4
20260507020426 44 197 0.0 0.0 0.00 0.00 0.00 49 1053.2
20260507015923 44 197 0.0 0.0 0.00 0.00 0.00 49 1053.3
20260507015422 44 197 0.0 0.0 0.00 0.00 0.00 49 1053.2
20260507014918 44 197 0.0 0.0 0.00 0.00 0.00 49 1053.3
20260507014414 44 197 0.0 0.0 0.00 0.00 0.00 49 1053.1
20260507013911 44 197 0.0 0.0 0.00 0.00 0.00 49 1053.1
20260507013408 44 197 0.0 0.0 0.00 0.00 0.00 49 1053.2
20260507012905 44 197 0.0 0.0 0.00 0.00 0.00 49 1053.0
20260507012401 44 197 0.0 0.0 0.00 0.00 0.00 49 1053.2
20260507011858 44 197 0.0 0.0 0.00 0.00 0.00 49 1053.1
20260507011355 46 231 0.9 0.9 0.00 0.00 0.00 47 1053.2
20260507010849 46 231 0.9 0.9 0.00 0.00 0.00 47 1053.1
20260507010345 46 231 0.9 0.9 0.00 0.00 0.00 47 1053.2
20260507005843 47 273 1.7 2.6 0.00 0.00 0.00 45 1053.0
20260507005339 47 273 1.7 2.6 0.00 0.00 0.00 45 1053.1
20260507004836 47 290 1.7 2.6 0.00 0.00 0.00 44 1053.1
20260507004334 48 206 1.7 1.7 0.00 0.00 0.00 43 1053.1
20260507003831 48 206 1.7 1.7 0.00 0.00 0.00 43 1053.2
20260507003326 48 235 0.9 1.7 0.00 0.00 0.00 44 1053.2
20260507002821 48 197 0.9 0.9 0.00 0.00 0.00 44 1053.2
20260507002317 48 277 4.3 6.1 0.00 0.00 0.00 42 1053.3
20260507001814 48 323 2.6 2.6 0.00 0.00 0.00 42 1053.1
20260507001311 48 2 2.6 3.5 0.00 0.00 0.00 42 1053.1
20260507000808 49 194 1.7 2.6 0.00 0.00 0.00 43 1053.3
20260507000259 49 356 3.5 3.5 0.00 0.00 0.00 42 1053.2
20260506235755 49 45 1.7 1.7 0.00 0.00 0.00 42 1053.2
20260506235250 49 305 1.7 1.7 0.00 0.00 0.00 42 1053.3
20260506234747 49 238 0.9 2.6 0.00 0.00 0.00 43 1053.3
20260506234244 49 258 0.9 2.6 0.00 0.00 0.00 42 1053.4
20260506233742 49 260 3.5 6.1 0.00 0.00 0.00 42 1053.3
20260506233238 49 292 2.6 3.5 0.00 0.00 0.00 42 1053.4
20260506232735 48 340 2.6 3.5 0.00 0.00 0.00 43 1053.5
20260506232229 50 321 0.9 2.6 0.00 0.00 0.00 42 1053.5
20260506231727 50 285 3.5 5.2 0.00 0.00 0.00 41 1053.4
20260506231225 50 356 5.2 6.1 0.00 0.00 0.00 42 1053.3
20260506230722 48 347 1.7 2.6 0.00 0.00 0.00 43 1053.5
20260506230219 49 331 2.6 2.6 0.00 0.00 0.00 42 1053.4
20260506225715 50 292 2.6 6.1 0.00 0.00 0.00 41 1053.4
20260506225212 51 294 1.7 6.1 0.00 0.00 0.00 41 1053.5
20260506224708 50 289 1.7 2.6 0.00 0.00 0.00 42 1053.3
20260506224206 51 315 1.7 3.5 0.00 0.00 0.00 41 1053.5
20260506223702 50 1 0.9 3.5 0.00 0.00 0.00 42 1053.4
20260506223158 50 171 0.9 3.5 0.00 0.00 0.00 42 1053.2
20260506222655 51 308 2.6 6.1 0.00 0.00 0.00 41 1053.3
20260506222150 51 212 1.7 2.6 0.00 0.00 0.00 41 1053.4
20260506221649 50 26 3.5 6.1 0.00 0.00 0.00 40 1053.4
20260506221147 50 277 4.3 6.1 0.00 0.00 0.00 42 1053.4
20260506220643 50 294 3.5 7.0 0.00 0.00 0.00 40 1053.4
20260506220138 50 252 1.7 5.2 0.00 0.00 0.00 42 1053.6
20260506215635 50 273 2.6 3.5 0.00 0.00 0.00 42 1053.7
20260506215130 51 310 2.6 3.5 0.00 0.00 0.00 41 1053.7
20260506214627 50 261 5.2 7.0 0.00 0.00 0.00 42 1053.6
20260506214125 49 314 6.1 7.0 0.00 0.00 0.00 41 1053.7
20260506213623 49 297 2.6 2.6 0.00 0.00 0.00 43 1053.8
20260506213120 50 82 3.5 7.0 0.00 0.00 0.00 41 1053.8
20260506212617 50 337 4.3 6.1 0.00 0.00 0.00 44 1053.8
20260506212112 49 247 3.5 7.0 0.00 0.00 0.00 42 1053.8
20260506211608 48 293 3.5 7.8 0.00 0.00 0.00 43 1053.9
20260506211105 49 146 2.6 7.0 0.00 0.00 0.00 47 1053.8
20260506210602 49 252 4.3 6.1 0.00 0.00 0.00 42 1054.1
20260506210058 48 333 2.6 3.5 0.00 0.00 0.00 44 1054.0
20260506205555 49 13 2.6 5.2 0.00 0.00 0.00 42 1054.2
20260506205045 47 289 4.3 7.0 0.00 0.00 0.00 45 1054.1
20260506204543 47 264 1.7 7.8 0.00 0.00 0.00 44 1054.2
20260506204040 47 238 5.2 7.0 0.00 0.00 0.00 45 1054.4
20260506203539 47 14 2.6 5.2 0.00 0.00 0.00 45 1054.3
20260506203034 47 14 5.2 9.6 0.00 0.00 0.00 44 1054.4
20260506202532 47 258 4.3 7.0 0.00 0.00 0.00 43 1054.5
20260506202028 46 288 1.7 6.1 0.00 0.00 0.00 47 1054.4
20260506201526 47 300 4.3 9.6 0.00 0.00 0.00 45 1054.4
20260506201022 46 286 1.7 3.5 0.00 0.00 0.00 45 1054.5
20260506200518 46 234 4.3 6.1 0.00 0.00 0.00 46 1054.6
20260506200015 46 268 5.2 11.3 0.00 0.00 0.00 45 1054.7
20260506195513 46 263 4.3 7.8 0.00 0.00 0.00 46 1054.7
20260506195008 46 287 2.6 5.2 0.00 0.00 0.00 46 1054.8
20260506194506 47 241 2.6 3.5 0.00 0.00 0.00 49 1054.7
20260506194002 45 289 4.3 6.1 0.00 0.00 0.00 46 1054.9
20260506193500 45 254 2.6 5.2 0.00 0.00 0.00 47 1054.8
20260506192955 46 227 1.7 6.1 0.00 0.00 0.00 46 1054.9
20260506192453 45 257 2.6 6.1 0.00 0.00 0.00 47 1054.9
20260506191944 45 297 3.5 7.8 0.00 0.00 0.00 45 1055.1
20260506191441 45 278 5.2 9.6 0.00 0.00 0.00 47 1054.8
20260506190937 46 6 0.9 3.5 0.00 0.00 0.00 45 1054.8
20260506190434 46 353 2.6 7.8 0.00 0.00 0.00 47 1054.9
20260506185931 46 265 2.6 3.5 0.00 0.00 0.00 46 1054.9
20260506185428 45 299 5.2 6.1 0.00 0.00 0.00 48 1054.9
20260506184925 44 307 4.3 6.1 0.00 0.00 0.00 46 1054.8
20260506184421 45 318 4.3 6.1 0.00 0.00 0.00 46 1054.8
20260506183914 45 234 3.5 5.2 0.00 0.00 0.00 46 1054.9
20260506183409 44 299 5.2 7.8 0.00 0.00 0.00 46 1054.9
20260506182906 44 51 2.6 8.7 0.00 0.00 0.00 46 1055.1
20260506182403 45 274 2.6 3.5 0.00 0.00 0.00 46 1055.1
20260506181900 45 279 3.5 6.1 0.00 0.00 0.00 45 1054.9
20260506181358 45 304 3.5 6.1 0.00 0.00 0.00 46 1055.2
20260506180855 44 221 4.3 7.8 0.00 0.00 0.00 47 1055.1
20260506180351 44 282 3.5 6.1 0.00 0.00 0.00 47 1055.1
20260506175848 45 274 0.9 3.5 0.00 0.00 0.00 46 1055.1
20260506175345 44 346 1.7 6.1 0.00 0.00 0.00 50 1055.1
20260506174842 44 284 1.7 9.6 0.00 0.00 0.00 48 1055.1
20260506174339 44 286 1.7 5.2 0.00 0.00 0.00 50 1054.8
20260506173836 44 263 3.5 6.1 0.00 0.00 0.00 48 1054.9
20260506173332 44 301 3.5 6.1 0.00 0.00 0.00 49 1054.9
20260506172825 45 278 4.3 8.7 0.00 0.00 0.00 47 1055.1
20260506172321 44 50 0.9 3.5 0.00 0.00 0.00 50 1054.9
20260506171818 44 293 2.6 3.5 0.00 0.00 0.00 48 1054.8
20260506171315 44 303 3.5 5.2 0.00 0.00 0.00 49 1055.1
20260506170813 44 327 5.2 7.0 0.00 0.00 0.00 46 1054.9
20260506170309 46 322 3.5 5.2 0.00 0.00 0.00 47 1054.7
20260506165808 46 308 0.9 5.2 0.00 0.00 0.00 47 1055.1
20260506165305 44 262 3.5 3.5 0.00 0.00 0.00 50 1055.1
20260506164756 43 266 3.5 3.5 0.00 0.00 0.00 49 1054.9
20260506164253 44 165 2.6 7.0 0.00 0.00 0.00 50 1055.1
20260506163749 44 268 3.5 5.2 0.00 0.00 0.00 48 1055.1
20260506163244 44 153 1.7 2.6 0.00 0.00 0.00 49 1054.9
20260506162740 43 243 2.6 3.5 0.00 0.00 0.00 49 1054.9
20260506162238 44 289 4.3 5.2 0.00 0.00 0.00 47 1054.9
20260506161736 44 280 5.2 7.8 0.00 0.00 0.00 48 1054.8
20260506161233 44 75 0.9 7.0 0.00 0.00 0.00 49 1054.8
20260506160730 43 282 0.9 3.5 0.00 0.00 0.00 50 1055.1
20260506160226 43 282 4.3 5.2 0.00 0.00 0.00 49 1055.1
20260506155725 44 310 3.5 5.2 0.00 0.00 0.00 48 1054.9
20260506155221 43 339 3.5 6.1 0.00 0.00 0.00 48 1054.9
20260506153324 44 265 4.3 6.1 0.00 0.00 0.00 48 1054.8
20260506152821 44 356 1.7 6.1 0.00 0.00 0.00 50 1054.7
20260506152318 44 293 4.3 6.1 0.00 0.00 0.00 49 1054.8
20260506151817 43 227 5.2 7.0 0.00 0.00 0.00 49 1054.8
20260506151313 43 288 4.3 6.1 0.00 0.00 0.00 50 1054.7
20260506150809 43 244 3.5 7.0 0.00 0.00 0.00 50 1054.7
20260506150306 43 218 1.7 6.1 0.00 0.00 0.00 50 1054.7
20260506145803 43 288 5.2 7.8 0.00 0.00 0.00 50 1054.6
20260506145300 44 230 0.0 2.6 0.00 0.00 0.00 50 1054.6
20260506144757 43 334 0.9 1.7 0.00 0.00 0.00 51 1054.7
20260506144254 43 344 1.7 2.6 0.00 0.00 0.00 51 1054.8
20260506143752 42 294 2.6 5.2 0.00 0.00 0.00 51 1054.6
20260506143249 42 283 2.6 3.5 0.00 0.00 0.00 50 1054.6
20260506142747 43 38 1.7 3.5 0.00 0.00 0.00 51 1054.6
20260506142245 42 277 2.6 3.5 0.00 0.00 0.00 51 1054.7
20260506141743 42 59 0.0 2.6 0.00 0.00 0.00 51 1054.7
20260506141241 44 218 0.9 2.6 0.00 0.00 0.00 51 1054.6
20260506140738 43 256 1.7 2.6 0.00 0.00 0.00 51 1054.7
20260506140235 42 261 0.9 2.6 0.00 0.00 0.00 54 1054.7
20260506135732 43 290 1.7 5.2 0.00 0.00 0.00 49 1054.6
20260506135228 42 301 1.7 2.6 0.00 0.00 0.00 52 1054.8